Fascene Airport


Codes: FMNN/NOS
Name: Fascene Airport
City: Nosy Be
Country: Madagascar
Elevation: 36 ft.
Wikipedia:

Photos at Fascene Airport


   Photos courtesy of SpottingLog. You can add your own sightings and photos by signing up for a free trial today.



No photos found.

Weather at Fascene Airport


Time (UTC)DescriptionTempratureWindCloud coverageVisibilityPressureHumidity
15-Apr-2024 18:00Overcast Clouds29°C4 mph, NE100%10000m1012hPa72%
15-Apr-2024 21:00Overcast Clouds29°C2 mph, N100%10000m1013hPa74%
16-Apr-2024 00:00Light Rain28°C7 mph, S100%10000m1012hPa76%
16-Apr-2024 03:00Overcast Clouds28°C7 mph, S100%10000m1013hPa78%
16-Apr-2024 06:00Overcast Clouds28°C7 mph, SE96%10000m1014hPa75%
16-Apr-2024 09:00Broken Clouds28°C4 mph, NE77%10000m1013hPa70%
16-Apr-2024 12:00Broken Clouds29°C7 mph, W81%10000m1011hPa69%
16-Apr-2024 15:00Light Rain29°C7 mph, W53%10000m1013hPa71%
16-Apr-2024 18:00Light Rain29°C4 mph, NW41%10000m1014hPa70%
16-Apr-2024 21:00Broken Clouds28°C4 mph, S76%10000m1013hPa74%
17-Apr-2024 00:00Overcast Clouds28°C7 mph, E85%10000m1012hPa76%
17-Apr-2024 03:00Overcast Clouds27°C9 mph, E100%10000m1013hPa76%
17-Apr-2024 06:00Overcast Clouds27°C7 mph, SE100%10000m1015hPa72%
17-Apr-2024 09:00Overcast Clouds28°C4 mph, SE100%10000m1013hPa64%
17-Apr-2024 12:00Overcast Clouds29°C7 mph, SW100%10000m1011hPa65%
17-Apr-2024 15:00Overcast Clouds29°C7 mph, W94%10000m1013hPa72%
17-Apr-2024 18:00Light Rain29°C2 mph, SW97%10000m1014hPa70%
17-Apr-2024 21:00Overcast Clouds28°C2 mph, SE99%10000m1014hPa71%
18-Apr-2024 00:00Light Rain28°C4 mph, SE95%10000m1013hPa74%
18-Apr-2024 03:00Light Rain27°C2 mph, SE95%10000m1014hPa73%
18-Apr-2024 06:00Overcast Clouds28°C4 mph, E86%10000m1015hPa70%
18-Apr-2024 09:00Scattered Clouds29°C0 mph, NE45%10000m1013hPa65%
18-Apr-2024 12:00Scattered Clouds29°C7 mph, W33%10000m1012hPa66%
18-Apr-2024 15:00Light Rain29°C9 mph, SW10%10000m1012hPa72%
18-Apr-2024 18:00Light Rain29°C7 mph, W14%10000m1014hPa73%
18-Apr-2024 21:00Light Rain29°C0 mph, NW75%10000m1013hPa72%
19-Apr-2024 00:00Light Rain28°C7 mph, E83%10000m1011hPa76%
19-Apr-2024 03:00Overcast Clouds27°C9 mph, E96%10000m1012hPa76%
19-Apr-2024 06:00Overcast Clouds27°C7 mph, E98%10000m1013hPa73%
19-Apr-2024 09:00Overcast Clouds28°C2 mph, E89%10000m1011hPa71%
19-Apr-2024 12:00Broken Clouds28°C4 mph, W84%10000m1009hPa69%
19-Apr-2024 15:00Light Rain29°C7 mph, W47%10000m1010hPa74%
19-Apr-2024 18:00Light Rain29°C4 mph, W46%10000m1011hPa72%
19-Apr-2024 21:00Light Rain28°C2 mph, SW33%10000m1011hPa73%
20-Apr-2024 00:00Moderate Rain27°C4 mph, S40%10000m1010hPa78%
20-Apr-2024 03:00Light Rain27°C7 mph, SE50%10000m1011hPa77%
20-Apr-2024 06:00Broken Clouds28°C7 mph, E57%10000m1012hPa75%
20-Apr-2024 09:00Broken Clouds28°C7 mph, NE77%10000m1010hPa71%
20-Apr-2024 12:00Broken Clouds29°C9 mph, W83%10000m1008hPa69%
20-Apr-2024 15:00Light Rain29°C7 mph, SW56%10000m1009hPa71%